Year,Month,Day,Hour,Minute,Value (Times are PST for temperature in C)
2017,08,03,00,00,21.80
2017,08,03,00,01,21.70
2017,08,03,00,02,21.70
2017,08,03,00,03,21.70
2017,08,03,00,04,21.70
2017,08,03,00,05,21.70
2017,08,03,00,06,21.70
2017,08,03,00,07,21.60
2017,08,03,00,08,21.60
2017,08,03,00,09,21.60
2017,08,03,00,10,21.60
2017,08,03,00,11,21.60
2017,08,03,00,12,21.60
2017,08,03,00,13,21.50
2017,08,03,00,14,21.50
2017,08,03,00,15,21.50
2017,08,03,00,16,21.40
2017,08,03,00,17,21.40
2017,08,03,00,18,21.40
2017,08,03,00,19,21.30
2017,08,03,00,20,21.30
2017,08,03,00,21,21.30
2017,08,03,00,22,21.30
2017,08,03,00,23,21.20
2017,08,03,00,24,21.20
2017,08,03,00,25,21.10
2017,08,03,00,26,21.10
2017,08,03,00,27,21.10
2017,08,03,00,28,21.10
2017,08,03,00,29,21.00
2017,08,03,00,30,21.00
2017,08,03,00,31,21.00
2017,08,03,00,32,21.00
2017,08,03,00,33,20.90
2017,08,03,00,34,20.90
2017,08,03,00,35,20.90
2017,08,03,00,36,20.90
2017,08,03,00,37,20.90
2017,08,03,00,38,20.80
2017,08,03,00,39,20.80
2017,08,03,00,40,20.80
2017,08,03,00,41,20.80
2017,08,03,00,42,20.80
2017,08,03,00,43,20.80
2017,08,03,00,44,20.70
2017,08,03,00,45,20.70
2017,08,03,00,46,20.70
2017,08,03,00,47,20.70
2017,08,03,00,48,20.70
2017,08,03,00,49,20.70
2017,08,03,00,50,20.70
2017,08,03,00,51,20.70
2017,08,03,00,52,20.60
2017,08,03,00,53,20.60
2017,08,03,00,54,20.60
2017,08,03,00,55,20.60
2017,08,03,00,56,20.60
2017,08,03,00,57,20.60
2017,08,03,00,58,20.60
2017,08,03,00,59,20.50
2017,08,03,01,00,20.50
2017,08,03,01,01,20.50
2017,08,03,01,02,20.50
2017,08,03,01,03,20.50
2017,08,03,01,04,20.50
2017,08,03,01,05,20.50
2017,08,03,01,06,20.40
2017,08,03,01,07,20.40
2017,08,03,01,08,20.40
2017,08,03,01,09,20.40
2017,08,03,01,10,20.40
2017,08,03,01,11,20.30
2017,08,03,01,12,20.30
2017,08,03,01,13,20.30
2017,08,03,01,14,20.20
2017,08,03,01,15,20.20
2017,08,03,01,16,20.20
2017,08,03,01,17,20.10
2017,08,03,01,18,20.10
2017,08,03,01,19,20.10
2017,08,03,01,20,20.10
2017,08,03,01,21,20.00
2017,08,03,01,22,20.00
2017,08,03,01,23,19.90
2017,08,03,01,24,19.90
2017,08,03,01,25,19.90
2017,08,03,01,26,19.90
2017,08,03,01,27,19.90
2017,08,03,01,28,19.90
2017,08,03,01,29,19.80
2017,08,03,01,30,19.80
2017,08,03,01,31,19.80
2017,08,03,01,32,19.80
2017,08,03,01,33,19.70
2017,08,03,01,34,19.70
2017,08,03,01,35,19.70
2017,08,03,01,36,19.70
2017,08,03,01,37,19.70
2017,08,03,01,38,19.60
2017,08,03,01,39,19.60
2017,08,03,01,40,19.60
2017,08,03,01,41,19.60
2017,08,03,01,42,19.60
2017,08,03,01,43,19.50
2017,08,03,01,44,19.50
2017,08,03,01,45,19.60
2017,08,03,01,46,19.60
2017,08,03,01,47,19.70
2017,08,03,01,48,19.70
2017,08,03,01,49,19.70
2017,08,03,01,50,19.80
2017,08,03,01,51,19.80
2017,08,03,01,52,19.80
2017,08,03,01,53,19.80
2017,08,03,01,54,19.90
2017,08,03,01,55,19.90
2017,08,03,01,56,19.90
2017,08,03,01,57,19.80
2017,08,03,01,58,19.80
2017,08,03,01,59,19.80
2017,08,03,02,00,19.70
2017,08,03,02,01,19.70
2017,08,03,02,02,19.70
2017,08,03,02,03,19.70
2017,08,03,02,04,19.70
2017,08,03,02,05,19.70
2017,08,03,02,06,19.70
2017,08,03,02,07,19.70
2017,08,03,02,08,19.60
2017,08,03,02,09,19.60
2017,08,03,02,10,19.60
2017,08,03,02,11,19.50
2017,08,03,02,12,19.50
2017,08,03,02,13,19.40
2017,08,03,02,14,19.40
2017,08,03,02,15,19.30
2017,08,03,02,16,19.30
2017,08,03,02,17,19.30
2017,08,03,02,18,19.30
2017,08,03,02,19,19.20
2017,08,03,02,20,19.20
2017,08,03,02,21,19.20
2017,08,03,02,22,19.20
2017,08,03,02,23,19.20
2017,08,03,02,24,19.20
2017,08,03,02,25,19.20
2017,08,03,02,26,19.20
2017,08,03,02,27,19.20
2017,08,03,02,28,19.20
2017,08,03,02,29,19.30
2017,08,03,02,30,19.30
2017,08,03,02,31,19.30
2017,08,03,02,32,19.30
2017,08,03,02,33,19.30
2017,08,03,02,34,19.30
2017,08,03,02,35,19.30
2017,08,03,02,36,19.30
2017,08,03,02,37,19.30
2017,08,03,02,38,19.30
2017,08,03,02,39,19.30
2017,08,03,02,40,19.30
2017,08,03,02,41,19.30
2017,08,03,02,42,19.20
2017,08,03,02,43,19.20
2017,08,03,02,44,19.20
2017,08,03,02,45,19.10
2017,08,03,02,46,19.10
2017,08,03,02,47,19.00
2017,08,03,02,48,19.00
2017,08,03,02,49,18.90
2017,08,03,02,50,18.90
2017,08,03,02,51,18.80
2017,08,03,02,52,18.80
2017,08,03,02,53,18.70
2017,08,03,02,54,18.70
2017,08,03,02,55,18.70
2017,08,03,02,56,18.70
2017,08,03,02,57,18.60
2017,08,03,02,58,18.60
2017,08,03,02,59,18.60
2017,08,03,03,00,18.60
2017,08,03,03,01,18.60
2017,08,03,03,02,18.60
2017,08,03,03,03,18.60
2017,08,03,03,04,18.60
2017,08,03,03,05,18.60
2017,08,03,03,06,18.60
2017,08,03,03,07,18.60
2017,08,03,03,08,18.60
2017,08,03,03,09,18.60
2017,08,03,03,10,18.60
2017,08,03,03,11,18.60
2017,08,03,03,12,18.60
2017,08,03,03,13,18.60
2017,08,03,03,14,18.60
2017,08,03,03,15,18.60
2017,08,03,03,16,18.60
2017,08,03,03,17,18.60
2017,08,03,03,18,18.60
2017,08,03,03,19,18.60
2017,08,03,03,20,18.60
2017,08,03,03,21,18.50
2017,08,03,03,22,18.50
2017,08,03,03,23,18.40
2017,08,03,03,24,18.40
2017,08,03,03,25,18.40
2017,08,03,03,26,18.40
2017,08,03,03,27,18.30
2017,08,03,03,28,18.30
2017,08,03,03,29,18.30
2017,08,03,03,30,18.30
2017,08,03,03,31,18.20
2017,08,03,03,32,18.20
2017,08,03,03,33,18.10
2017,08,03,03,34,18.10
2017,08,03,03,35,18.10
2017,08,03,03,36,18.10
2017,08,03,03,37,18.10
2017,08,03,03,38,18.10
2017,08,03,03,39,18.10
2017,08,03,03,40,18.10
2017,08,03,03,41,18.20
2017,08,03,03,42,18.20
2017,08,03,03,43,18.20
2017,08,03,03,44,18.20
2017,08,03,03,45,18.20
2017,08,03,03,46,18.20
2017,08,03,03,47,18.20
2017,08,03,03,48,18.20
2017,08,03,03,49,18.20
2017,08,03,03,50,18.20
2017,08,03,03,51,18.20
2017,08,03,03,52,18.20
2017,08,03,03,53,18.20
2017,08,03,03,54,18.20
2017,08,03,03,55,18.20
2017,08,03,03,56,18.20
2017,08,03,03,57,18.20
2017,08,03,03,58,18.20
2017,08,03,03,59,18.20
2017,08,03,04,00,18.20
2017,08,03,04,01,18.20
2017,08,03,04,02,18.20
2017,08,03,04,03,18.10
2017,08,03,04,04,18.10
2017,08,03,04,05,18.10
2017,08,03,04,06,18.00
2017,08,03,04,07,18.00
2017,08,03,04,08,17.90
2017,08,03,04,09,17.90
2017,08,03,04,10,17.90
2017,08,03,04,11,17.80
2017,08,03,04,12,17.80
2017,08,03,04,13,17.80
2017,08,03,04,14,17.70
2017,08,03,04,15,17.70
2017,08,03,04,16,17.70
2017,08,03,04,17,17.60
2017,08,03,04,18,17.60
2017,08,03,04,19,17.60
2017,08,03,04,20,17.70
2017,08,03,04,21,17.70
2017,08,03,04,22,17.70
2017,08,03,04,23,17.80
2017,08,03,04,24,17.80
2017,08,03,04,25,17.80
2017,08,03,04,26,17.90
2017,08,03,04,27,17.90
2017,08,03,04,28,17.90
2017,08,03,04,29,17.90
2017,08,03,04,30,17.90
2017,08,03,04,31,17.90
2017,08,03,04,32,17.80
2017,08,03,04,33,17.80
2017,08,03,04,34,17.80
2017,08,03,04,35,17.80
2017,08,03,04,36,17.80
2017,08,03,04,37,17.80
2017,08,03,04,38,17.80
2017,08,03,04,39,17.80
2017,08,03,04,40,17.80
2017,08,03,04,41,17.70
2017,08,03,04,42,17.70
2017,08,03,04,43,17.70
2017,08,03,04,44,17.70
2017,08,03,04,45,17.70
2017,08,03,04,46,17.70
2017,08,03,04,47,17.60
2017,08,03,04,48,17.60
2017,08,03,04,49,17.60
2017,08,03,04,50,17.60
2017,08,03,04,51,17.50
2017,08,03,04,52,17.50
2017,08,03,04,53,17.40
2017,08,03,04,54,17.40
2017,08,03,04,55,17.30
2017,08,03,04,56,17.20
2017,08,03,04,57,17.20
2017,08,03,04,58,17.10
2017,08,03,04,59,17.10
2017,08,03,05,00,17.10
2017,08,03,05,01,17.00
2017,08,03,05,02,17.00
2017,08,03,05,03,17.00
2017,08,03,05,04,16.90
2017,08,03,05,05,16.90
2017,08,03,05,06,16.90
2017,08,03,05,07,16.90
2017,08,03,05,08,16.90
2017,08,03,05,09,16.90
2017,08,03,05,10,16.90
2017,08,03,05,11,17.00
2017,08,03,05,12,17.00
2017,08,03,05,13,17.00
2017,08,03,05,14,17.10
2017,08,03,05,15,17.10
2017,08,03,05,16,17.10
2017,08,03,05,17,17.00
2017,08,03,05,18,17.00
2017,08,03,05,19,17.00
2017,08,03,05,20,17.00
2017,08,03,05,21,17.00
2017,08,03,05,22,16.90
2017,08,03,05,23,16.90
2017,08,03,05,24,16.90
2017,08,03,05,25,16.90
2017,08,03,05,26,16.90
2017,08,03,05,27,16.90
2017,08,03,05,28,16.90
2017,08,03,05,29,16.90
2017,08,03,05,30,16.90
2017,08,03,05,31,16.90
2017,08,03,05,32,16.90
2017,08,03,05,33,17.00
2017,08,03,05,34,17.00
2017,08,03,05,35,17.00
2017,08,03,05,36,17.00
2017,08,03,05,37,17.00
2017,08,03,05,38,16.90
2017,08,03,05,39,16.90
2017,08,03,05,40,16.90
2017,08,03,05,41,16.90
2017,08,03,05,42,16.90
2017,08,03,05,43,16.80
2017,08,03,05,44,16.80
2017,08,03,05,45,16.80
2017,08,03,05,46,16.80
2017,08,03,05,47,16.70
2017,08,03,05,48,16.70
2017,08,03,05,49,16.70
2017,08,03,05,50,16.70
2017,08,03,05,51,16.70
2017,08,03,05,52,16.60
2017,08,03,05,53,16.60
2017,08,03,05,54,16.60
2017,08,03,05,55,16.60
2017,08,03,05,56,16.60
2017,08,03,05,57,16.60
2017,08,03,05,58,16.60
2017,08,03,05,59,16.60
2017,08,03,06,00,16.60
2017,08,03,06,01,16.60
2017,08,03,06,02,16.60
2017,08,03,06,03,16.70
2017,08,03,06,04,16.70
2017,08,03,06,05,16.70
2017,08,03,06,06,16.70
2017,08,03,06,07,16.70
2017,08,03,06,08,16.70
2017,08,03,06,09,16.70
2017,08,03,06,10,16.80
2017,08,03,06,11,16.80
2017,08,03,06,12,16.80
2017,08,03,06,13,16.80
2017,08,03,06,14,16.80
2017,08,03,06,15,16.80
2017,08,03,06,16,16.80
2017,08,03,06,17,16.80
2017,08,03,06,18,16.90
2017,08,03,06,19,16.90
2017,08,03,06,20,16.80
2017,08,03,06,21,16.80
2017,08,03,06,22,16.80
2017,08,03,06,23,16.80
2017,08,03,06,24,16.80
2017,08,03,06,25,16.80
2017,08,03,06,26,16.70
2017,08,03,06,27,16.70
2017,08,03,06,28,16.70
2017,08,03,06,29,16.70
2017,08,03,06,30,16.70
2017,08,03,06,31,16.60
2017,08,03,06,32,16.70
2017,08,03,06,33,16.70
2017,08,03,06,34,16.70
2017,08,03,06,35,16.70
2017,08,03,06,36,16.70
2017,08,03,06,37,16.70
2017,08,03,06,38,16.60
2017,08,03,06,39,16.60
2017,08,03,06,40,16.60
2017,08,03,06,41,16.60
2017,08,03,06,42,16.60
2017,08,03,06,43,16.60
2017,08,03,06,44,16.60
2017,08,03,06,45,16.60
2017,08,03,06,46,16.60
2017,08,03,06,47,16.60
2017,08,03,06,48,16.60
2017,08,03,06,49,16.60
2017,08,03,06,50,16.60
2017,08,03,06,51,16.60
2017,08,03,06,52,16.60
2017,08,03,06,53,16.60
2017,08,03,06,54,16.70
2017,08,03,06,55,16.70
2017,08,03,06,56,16.70
2017,08,03,06,57,16.70
2017,08,03,06,58,16.80
2017,08,03,06,59,16.80
2017,08,03,07,00,16.80
2017,08,03,07,01,16.90
2017,08,03,07,02,16.90
2017,08,03,07,03,16.90
2017,08,03,07,04,16.90
2017,08,03,07,05,16.90
2017,08,03,07,06,16.90
2017,08,03,07,07,16.90
2017,08,03,07,08,17.00
2017,08,03,07,09,17.00
2017,08,03,07,10,17.00
2017,08,03,07,11,17.00
2017,08,03,07,12,16.90
2017,08,03,07,13,16.90
2017,08,03,07,14,16.90
2017,08,03,07,15,16.90
2017,08,03,07,16,17.00
2017,08,03,07,17,17.00
2017,08,03,07,18,17.00
2017,08,03,07,19,17.00
2017,08,03,07,20,17.00
2017,08,03,07,21,17.10
2017,08,03,07,22,17.10
2017,08,03,07,23,17.10
2017,08,03,07,24,17.00
2017,08,03,07,25,17.10
2017,08,03,07,26,17.10
2017,08,03,07,27,17.10
2017,08,03,07,28,17.10
2017,08,03,07,29,17.10
2017,08,03,07,30,17.10
2017,08,03,07,31,17.10
2017,08,03,07,32,17.20
2017,08,03,07,33,17.20
2017,08,03,07,34,17.20
2017,08,03,07,35,17.20
2017,08,03,07,36,17.20
2017,08,03,07,37,17.30
2017,08,03,07,38,17.30
2017,08,03,07,39,17.30
2017,08,03,07,40,17.40
2017,08,03,07,41,17.40
2017,08,03,07,42,17.40
2017,08,03,07,43,17.50
2017,08,03,07,44,17.50
2017,08,03,07,45,17.60
2017,08,03,07,46,17.60
2017,08,03,07,47,17.60
2017,08,03,07,48,17.60
2017,08,03,07,49,17.70
2017,08,03,07,50,17.70
2017,08,03,07,51,17.70
2017,08,03,07,52,17.70
2017,08,03,07,53,17.80
2017,08,03,07,54,17.80
2017,08,03,07,55,17.80
2017,08,03,07,56,17.80
2017,08,03,07,57,17.90
2017,08,03,07,58,18.00
2017,08,03,07,59,18.00
2017,08,03,08,00,18.10
2017,08,03,08,01,18.20
2017,08,03,08,02,18.20
2017,08,03,08,03,18.20
2017,08,03,08,04,18.30
2017,08,03,08,05,18.30
2017,08,03,08,06,18.40
2017,08,03,08,07,18.40
2017,08,03,08,08,18.50
2017,08,03,08,09,18.50
2017,08,03,08,10,18.60
2017,08,03,08,11,18.60
2017,08,03,08,12,18.70
2017,08,03,08,13,18.70
2017,08,03,08,14,18.70
2017,08,03,08,15,18.80
2017,08,03,08,16,18.80
2017,08,03,08,17,18.80
2017,08,03,08,18,18.90
2017,08,03,08,19,18.90
2017,08,03,08,20,18.90
2017,08,03,08,21,19.00
2017,08,03,08,22,19.00
2017,08,03,08,23,19.10
2017,08,03,08,24,19.10
2017,08,03,08,25,19.10
2017,08,03,08,26,19.20
2017,08,03,08,27,19.20
2017,08,03,08,28,19.30
2017,08,03,08,29,19.30
2017,08,03,08,30,19.40
2017,08,03,08,31,19.40
2017,08,03,08,32,19.50
2017,08,03,08,33,19.50
2017,08,03,08,34,19.60
2017,08,03,08,35,19.60
2017,08,03,08,36,19.70
2017,08,03,08,37,19.80
2017,08,03,08,38,19.80
2017,08,03,08,39,19.90
2017,08,03,08,40,19.90
2017,08,03,08,41,20.00
2017,08,03,08,42,20.00
2017,08,03,08,43,20.10
2017,08,03,08,44,20.20
2017,08,03,08,45,20.20
2017,08,03,08,46,20.30
2017,08,03,08,47,20.30
2017,08,03,08,48,20.40
2017,08,03,08,49,20.50
2017,08,03,08,50,20.50
2017,08,03,08,51,20.60
2017,08,03,08,52,20.60
2017,08,03,08,53,20.70
2017,08,03,08,54,20.80
2017,08,03,08,55,20.80
2017,08,03,08,56,20.90
2017,08,03,08,57,20.90
2017,08,03,08,58,21.00
2017,08,03,08,59,21.00
2017,08,03,09,00,21.10
2017,08,03,09,01,21.20
2017,08,03,09,02,21.20
2017,08,03,09,03,21.30
2017,08,03,09,04,21.40
2017,08,03,09,05,21.50
2017,08,03,09,06,21.60
2017,08,03,09,07,21.70
2017,08,03,09,08,21.80
2017,08,03,09,09,21.90
2017,08,03,09,10,22.00
2017,08,03,09,11,22.10
2017,08,03,09,12,22.20
2017,08,03,09,13,22.30
2017,08,03,09,14,22.40
2017,08,03,09,15,22.50
2017,08,03,09,16,22.60
2017,08,03,09,17,22.70
2017,08,03,09,18,22.80
2017,08,03,09,19,23.00
2017,08,03,09,20,23.10
2017,08,03,09,21,23.20
2017,08,03,09,22,23.30
2017,08,03,09,23,23.30
2017,08,03,09,24,23.40
2017,08,03,09,25,23.50
2017,08,03,09,26,23.50
2017,08,03,09,27,23.60
2017,08,03,09,28,23.60
2017,08,03,09,29,23.60
2017,08,03,09,30,23.60
2017,08,03,09,31,23.60
2017,08,03,09,32,23.70
2017,08,03,09,33,23.70
2017,08,03,09,34,23.80
2017,08,03,09,35,23.90
2017,08,03,09,36,24.00
2017,08,03,09,37,24.10
2017,08,03,09,38,24.20
2017,08,03,09,39,24.20
2017,08,03,09,40,24.30
2017,08,03,09,41,24.40
2017,08,03,09,42,24.50
2017,08,03,09,43,24.60
2017,08,03,09,44,24.70
2017,08,03,09,45,24.70
2017,08,03,09,46,24.80
2017,08,03,09,47,24.90
2017,08,03,09,48,25.00
2017,08,03,09,49,25.00
2017,08,03,09,50,25.10
2017,08,03,09,51,25.20
2017,08,03,09,52,25.20
2017,08,03,09,53,25.20
2017,08,03,09,54,25.30
2017,08,03,09,55,25.30
2017,08,03,09,56,25.30
2017,08,03,09,57,25.30
2017,08,03,09,58,25.30
2017,08,03,09,59,25.30
2017,08,03,10,00,25.30
2017,08,03,10,01,25.40
2017,08,03,10,02,25.40
2017,08,03,10,03,25.40
2017,08,03,10,04,25.40
2017,08,03,10,05,25.50
2017,08,03,10,06,25.50
2017,08,03,10,07,25.60
2017,08,03,10,08,25.60
2017,08,03,10,09,25.60
2017,08,03,10,10,25.70
2017,08,03,10,11,25.70
2017,08,03,10,12,25.80
2017,08,03,10,13,25.80
2017,08,03,10,14,25.80
2017,08,03,10,15,25.80
2017,08,03,10,16,25.80
2017,08,03,10,17,25.90
2017,08,03,10,18,25.90
2017,08,03,10,19,25.90
2017,08,03,10,20,25.90
2017,08,03,10,21,26.00
2017,08,03,10,22,26.00
2017,08,03,10,23,26.00
2017,08,03,10,24,26.10
2017,08,03,10,25,26.10
2017,08,03,10,26,26.10
2017,08,03,10,27,26.10
2017,08,03,10,28,26.10
2017,08,03,10,29,26.10
2017,08,03,10,30,26.20
2017,08,03,10,31,26.20
2017,08,03,10,32,26.20
2017,08,03,10,33,26.20
2017,08,03,10,34,26.30
2017,08,03,10,35,26.30
2017,08,03,10,36,26.30
2017,08,03,10,37,26.40
2017,08,03,10,38,26.50
2017,08,03,10,39,26.50
2017,08,03,10,40,26.60
2017,08,03,10,41,26.60
2017,08,03,10,42,26.70
2017,08,03,10,43,26.70
2017,08,03,10,44,26.80
2017,08,03,10,45,26.80
2017,08,03,10,46,26.80
2017,08,03,10,47,26.80
2017,08,03,10,48,26.80
2017,08,03,10,49,26.80
2017,08,03,10,50,26.80
2017,08,03,10,51,26.80
2017,08,03,10,52,26.90
2017,08,03,10,53,26.90
2017,08,03,10,54,26.90
2017,08,03,10,55,26.90
2017,08,03,10,56,27.00
2017,08,03,10,57,27.10
2017,08,03,10,58,27.10
2017,08,03,10,59,27.10
2017,08,03,11,00,27.10
2017,08,03,11,01,27.10
2017,08,03,11,02,27.20
2017,08,03,11,03,27.20
2017,08,03,11,04,27.20
2017,08,03,11,05,27.30
2017,08,03,11,06,27.30
2017,08,03,11,07,27.30
2017,08,03,11,08,27.40
2017,08,03,11,09,27.40
2017,08,03,11,10,27.40
2017,08,03,11,11,27.50
2017,08,03,11,12,27.50
2017,08,03,11,13,27.60
2017,08,03,11,14,27.60
2017,08,03,11,15,27.70
2017,08,03,11,16,27.70
2017,08,03,11,17,27.80
2017,08,03,11,18,27.80
2017,08,03,11,19,27.90
2017,08,03,11,20,28.00
2017,08,03,11,21,28.00
2017,08,03,11,22,28.10
2017,08,03,11,23,28.10
2017,08,03,11,24,28.20
2017,08,03,11,25,28.20
2017,08,03,11,26,28.20
2017,08,03,11,27,28.20
2017,08,03,11,28,28.30
2017,08,03,11,29,28.30
2017,08,03,11,30,28.30
2017,08,03,11,31,28.30
2017,08,03,11,32,28.40
2017,08,03,11,33,28.40
2017,08,03,11,34,28.40
2017,08,03,11,35,28.40
2017,08,03,11,36,28.40
2017,08,03,11,37,28.40
2017,08,03,11,38,28.50
2017,08,03,11,39,28.50
2017,08,03,11,40,28.50
2017,08,03,11,41,28.60
2017,08,03,11,42,28.60
2017,08,03,11,43,28.70
2017,08,03,11,44,28.70
2017,08,03,11,45,28.70
2017,08,03,11,46,28.80
2017,08,03,11,47,28.80
2017,08,03,11,48,28.80
2017,08,03,11,49,28.90
2017,08,03,11,50,28.90
2017,08,03,11,51,29.00
2017,08,03,11,52,29.00
2017,08,03,11,53,29.10
2017,08,03,11,54,29.10
2017,08,03,11,55,29.10
2017,08,03,11,56,29.20
2017,08,03,11,57,29.20
2017,08,03,11,58,29.20
2017,08,03,11,59,29.20
2017,08,03,12,00,29.30
2017,08,03,12,01,29.30
2017,08,03,12,02,29.30
2017,08,03,12,03,29.30
2017,08,03,12,04,29.20
2017,08,03,12,05,29.20
2017,08,03,12,06,29.10
2017,08,03,12,07,29.10
2017,08,03,12,08,29.00
2017,08,03,12,09,28.90
2017,08,03,12,10,28.90
2017,08,03,12,11,28.90
2017,08,03,12,12,28.90
2017,08,03,12,13,28.90
2017,08,03,12,14,28.90
2017,08,03,12,15,28.80
2017,08,03,12,16,28.80
2017,08,03,12,17,28.80
2017,08,03,12,18,28.80
2017,08,03,12,19,28.80
2017,08,03,12,20,28.90
2017,08,03,12,21,28.90
2017,08,03,12,22,28.90
2017,08,03,12,23,28.90
2017,08,03,12,24,28.90
2017,08,03,12,25,28.90
2017,08,03,12,26,28.90
2017,08,03,12,27,29.00
2017,08,03,12,28,29.00
2017,08,03,12,29,29.00
2017,08,03,12,30,29.00
2017,08,03,12,31,29.10
2017,08,03,12,32,29.10
2017,08,03,12,33,29.10
2017,08,03,12,34,29.10
2017,08,03,12,35,29.10
2017,08,03,12,36,29.00
2017,08,03,12,37,28.90
2017,08,03,12,38,28.90
2017,08,03,12,39,28.80
2017,08,03,12,40,28.80
2017,08,03,12,41,28.80
2017,08,03,12,42,28.70
2017,08,03,12,43,28.70
2017,08,03,12,44,28.70
2017,08,03,12,45,28.70
2017,08,03,12,46,28.70
2017,08,03,12,47,28.70
2017,08,03,12,48,28.70
2017,08,03,12,49,28.70
2017,08,03,12,50,28.70
2017,08,03,12,51,28.70
2017,08,03,12,52,28.70
2017,08,03,12,53,28.70
2017,08,03,12,54,28.70
2017,08,03,12,55,28.80
2017,08,03,12,56,28.80
2017,08,03,12,57,28.80
2017,08,03,12,58,28.80
2017,08,03,12,59,28.80
2017,08,03,13,00,28.80
2017,08,03,13,01,28.80
2017,08,03,13,02,28.80
2017,08,03,13,03,28.80
2017,08,03,13,04,28.80
2017,08,03,13,05,28.80
2017,08,03,13,06,28.90
2017,08,03,13,07,28.90
2017,08,03,13,08,28.90
2017,08,03,13,09,29.00
2017,08,03,13,10,29.00
2017,08,03,13,11,29.00
2017,08,03,13,12,29.10
2017,08,03,13,13,29.10
2017,08,03,13,14,29.10
2017,08,03,13,15,29.20
2017,08,03,13,16,29.20
2017,08,03,13,17,29.20
2017,08,03,13,18,29.20
2017,08,03,13,19,29.20
2017,08,03,13,20,29.20
2017,08,03,13,21,29.10
2017,08,03,13,22,29.20
2017,08,03,13,23,29.20
2017,08,03,13,24,29.20
2017,08,03,13,25,29.20
2017,08,03,13,26,29.30
2017,08,03,13,27,29.30
2017,08,03,13,28,29.40
2017,08,03,13,29,29.40
2017,08,03,13,30,29.40
2017,08,03,13,31,29.50
2017,08,03,13,32,29.50
2017,08,03,13,33,29.60
2017,08,03,13,34,29.60
2017,08,03,13,35,29.60
2017,08,03,13,36,29.60
2017,08,03,13,37,29.60
2017,08,03,13,38,29.60
2017,08,03,13,39,29.60
2017,08,03,13,40,29.60
2017,08,03,13,41,29.60
2017,08,03,13,42,29.60
2017,08,03,13,43,29.60
2017,08,03,13,44,29.60
2017,08,03,13,45,29.60
2017,08,03,13,46,29.60
2017,08,03,13,47,29.70
2017,08,03,13,48,29.70
2017,08,03,13,49,29.70
2017,08,03,13,50,29.70
2017,08,03,13,51,29.70
2017,08,03,13,52,29.70
2017,08,03,13,53,29.70
2017,08,03,13,54,29.70
2017,08,03,13,55,29.70
2017,08,03,13,56,29.70
2017,08,03,13,57,29.70
2017,08,03,13,58,29.70
2017,08,03,13,59,29.70
2017,08,03,14,00,29.70
2017,08,03,14,01,29.70
2017,08,03,14,02,29.70
2017,08,03,14,03,29.70
2017,08,03,14,04,29.70
2017,08,03,14,05,29.70
2017,08,03,14,06,29.70
2017,08,03,14,07,29.70
2017,08,03,14,08,29.70
2017,08,03,14,09,29.70
2017,08,03,14,10,29.60
2017,08,03,14,11,29.60
2017,08,03,14,12,29.50
2017,08,03,14,13,29.50
2017,08,03,14,14,29.40
2017,08,03,14,15,29.40
2017,08,03,14,16,29.50
2017,08,03,14,17,29.50
2017,08,03,14,18,29.60
2017,08,03,14,19,29.70
2017,08,03,14,20,29.70
2017,08,03,14,21,29.70
2017,08,03,14,22,29.80
2017,08,03,14,23,29.80
2017,08,03,14,24,29.80
2017,08,03,14,25,29.80
2017,08,03,14,26,29.80
2017,08,03,14,27,29.80
2017,08,03,14,28,29.80
2017,08,03,14,29,29.80
2017,08,03,14,30,29.90
2017,08,03,14,31,29.90
2017,08,03,14,32,29.90
2017,08,03,14,33,29.90
2017,08,03,14,34,30.00
2017,08,03,14,35,30.00
2017,08,03,14,36,30.10
2017,08,03,14,37,30.10
2017,08,03,14,38,30.10
2017,08,03,14,39,30.10
2017,08,03,14,40,30.10
2017,08,03,14,41,30.10
2017,08,03,14,42,30.10
2017,08,03,14,43,30.20
2017,08,03,14,44,30.20
2017,08,03,14,45,30.20
2017,08,03,14,46,30.20
2017,08,03,14,47,30.20
2017,08,03,14,48,30.20
2017,08,03,14,49,30.20
2017,08,03,14,50,30.20
2017,08,03,14,51,30.20
2017,08,03,14,52,30.20
2017,08,03,14,53,30.20
2017,08,03,14,54,30.30
2017,08,03,14,55,30.30
2017,08,03,14,56,30.30
2017,08,03,14,57,30.40
2017,08,03,14,58,30.40
2017,08,03,14,59,30.50
2017,08,03,15,00,30.50
2017,08,03,15,01,30.60
2017,08,03,15,02,30.60
2017,08,03,15,03,30.60
2017,08,03,15,04,30.60
2017,08,03,15,05,30.60
2017,08,03,15,06,30.60
2017,08,03,15,07,30.60
2017,08,03,15,08,30.50
2017,08,03,15,09,30.50
2017,08,03,15,10,30.50
2017,08,03,15,11,30.60
2017,08,03,15,12,30.60
2017,08,03,15,13,30.60
2017,08,03,15,14,30.60
2017,08,03,15,15,30.60
2017,08,03,15,16,30.60
2017,08,03,15,17,30.60
2017,08,03,15,18,30.60
2017,08,03,15,19,30.60
2017,08,03,15,20,30.60
2017,08,03,15,21,30.60
2017,08,03,15,22,30.60
2017,08,03,15,23,30.60
2017,08,03,15,24,30.60
2017,08,03,15,25,30.60
2017,08,03,15,26,30.60
2017,08,03,15,27,30.70
2017,08,03,15,28,30.70
2017,08,03,15,29,30.70
2017,08,03,15,30,30.60
2017,08,03,15,31,30.60
2017,08,03,15,32,30.60
2017,08,03,15,33,30.60
2017,08,03,15,34,30.60
2017,08,03,15,35,30.50
2017,08,03,15,36,30.60
2017,08,03,15,37,30.60
2017,08,03,15,38,30.50
2017,08,03,15,39,30.60
2017,08,03,15,40,30.60
2017,08,03,15,41,30.60
2017,08,03,15,42,30.60
2017,08,03,15,43,30.60
2017,08,03,15,44,30.60
2017,08,03,15,45,30.60
2017,08,03,15,46,30.70
2017,08,03,15,47,30.60
2017,08,03,15,48,30.60
2017,08,03,15,49,30.60
2017,08,03,15,50,30.60
2017,08,03,15,51,30.70
2017,08,03,15,52,30.70
2017,08,03,15,53,30.70
2017,08,03,15,54,30.80
2017,08,03,15,55,30.80
2017,08,03,15,56,30.90
2017,08,03,15,57,30.90
2017,08,03,15,58,30.90
2017,08,03,15,59,31.00
2017,08,03,16,00,31.00
2017,08,03,16,01,31.10
2017,08,03,16,02,31.10
2017,08,03,16,03,31.10
2017,08,03,16,04,31.20
2017,08,03,16,05,31.20
2017,08,03,16,06,31.20
2017,08,03,16,07,31.20
2017,08,03,16,08,31.20
2017,08,03,16,09,31.20
2017,08,03,16,10,31.20
2017,08,03,16,11,31.20
2017,08,03,16,12,31.20
2017,08,03,16,13,31.20
2017,08,03,16,14,31.30
2017,08,03,16,15,31.30
2017,08,03,16,16,31.30
2017,08,03,16,17,31.30
2017,08,03,16,18,31.40
2017,08,03,16,19,31.40
2017,08,03,16,20,31.40
2017,08,03,16,21,31.40
2017,08,03,16,22,31.40
2017,08,03,16,23,31.40
2017,08,03,16,24,31.30
2017,08,03,16,25,31.30
2017,08,03,16,26,31.40
2017,08,03,16,27,31.40
2017,08,03,16,28,31.40
2017,08,03,16,29,31.40
2017,08,03,16,30,31.40
2017,08,03,16,31,31.40
2017,08,03,16,32,31.40
2017,08,03,16,33,31.40
2017,08,03,16,34,31.40
2017,08,03,16,35,31.40
2017,08,03,16,36,31.30
2017,08,03,16,37,31.30
2017,08,03,16,38,31.30
2017,08,03,16,39,31.30
2017,08,03,16,40,31.30
2017,08,03,16,41,31.20
2017,08,03,16,42,31.20
2017,08,03,16,43,31.20
2017,08,03,16,44,31.20
2017,08,03,16,45,31.20
2017,08,03,16,46,31.20
2017,08,03,16,47,31.20
2017,08,03,16,48,31.20
2017,08,03,16,49,31.20
2017,08,03,16,50,31.20
2017,08,03,16,51,31.20
2017,08,03,16,52,31.20
2017,08,03,16,53,31.20
2017,08,03,16,54,31.20
2017,08,03,16,55,31.20
2017,08,03,16,56,31.20
2017,08,03,16,57,31.20
2017,08,03,16,58,31.20
2017,08,03,16,59,31.20
2017,08,03,17,00,31.20
2017,08,03,17,01,31.10
2017,08,03,17,02,31.10
2017,08,03,17,03,31.10
2017,08,03,17,04,31.10
2017,08,03,17,05,31.10
2017,08,03,17,06,31.10
2017,08,03,17,07,31.10
2017,08,03,17,08,31.10
2017,08,03,17,09,31.10
2017,08,03,17,10,31.10
2017,08,03,17,11,31.10
2017,08,03,17,12,31.10
2017,08,03,17,13,31.10
2017,08,03,17,14,31.10
2017,08,03,17,15,31.10
2017,08,03,17,16,31.10
2017,08,03,17,17,31.10
2017,08,03,17,18,31.00
2017,08,03,17,19,31.00